Regional Weather Roundup
Issued by NWS Sterling, VA

Home | Current Version | Previous Version | Graphics & Text | Print | Product List | Glossary On
Versions: 1 2 3 4 5 6 7 8 9 10 11 12 13 14 15 16 17 18 19 20 21 22 23 24 25 26 27 28 29 30 31 32 33 34 35 36 37 38 39 40 41 42 43 44 45 46 47 48 49 50
896
ASUS41 KLWX 260411
RWRLWX

REGIONAL WEATHER ROUNDUP
NATIONAL WEATHER SERVICE BALTIMORE MD/WASHINGTON DC
1200 AM EDT THU APR 26 2018

Note: "FAIR" indicates few or no clouds below 12,000 feet
with no significant weather and/or obstructions to visibility.
 TC=TEMPERATURE CELSIUS

 * =Non NWS site. Station does not report precipitation (e.g. rain,
    snow, etc.), thunder, or fog.

DCZ001-MDZ009-015-VAZ040>042-051-053>054-260500-
WASHINGTON METRO

CITY           SKY/WX    TMP DP  RH WIND       PRES   REMARKS
WASHINGTON NAT FAIR      62  52  69 NW13      29.75R
DULLES         MOCLDY    57  52  83 NW5       29.76R
ANDREWS AFB    FAIR      58  56  94 W8        29.73R
FT BELVOIR     FAIR      54  54 100 CALM      29.74S FOG
QUANTICO       FAIR      58  56  93 W5        29.76R
COLLEGE PARK*  FAIR      60  50  69 NW7       29.73S
LEESBURG*      CLOUDY    59  52  77 NW13G20   29.77S
MANASSAS*      FAIR      57  52  83 NW9       29.76S
GAITHERSBURG*  FAIR      57  50  77 NW10G16   29.75S

$$

MDZ006>007-011-014-260500-
BALTIMORE METRO

CITY           SKY/WX    TMP DP  RH WIND       PRES   REMARKS
BWI AIRPORT    FAIR      56  56 100 W7        29.72S
MD SCIENCE CTR   N/A     60  57  89 MISG      29.71F
MARTIN STATE   FAIR      59  57  94 W5        29.73R
ANNAPOLIS      MOCLDY    61  57  87 CALM      29.71S
FORT MEADE*    FAIR      54  52  94 W3        29.75S

$$

MDZ012-015-019>023-260500-
MARYLAND EASTERN SHORE

CITY           SKY/WX    TMP DP  RH WIND       PRES   REMARKS
OCEAN CITY     LGT RAIN  61  61 100 NW7       29.67F
SALISBURY      CLOUDY    61  60  97 W7        29.69R
BAY BRIDGE AP* MOCLDY    59  57  94 W8        29.72R
CAMBRIDGE*     MOCLDY    59  57  94 W5        29.71S

$$

MDZ017>025-260500-
SOUTHERN MARYLAND

CITY           SKY/WX    TMP DP  RH WIND       PRES   REMARKS
PATUXENT RIVER FAIR      59  57  93 W7        29.72S
ST INIGOES     FAIR      58  57  97 W6        29.71F
LEONARDTOWN*   FAIR      55  55 100 W3        29.74S

$$

MDZ003>005-260500-
NORTH CENTRAL MARYLAND

CITY           SKY/WX    TMP DP  RH WIND       PRES   REMARKS
FREDERICK*     MOCLDY    59  46  63 NW7G18    29.79R
HAGERSTOWN APT FAIR      56  45  66 NW14      29.78R
WESTMINSTER*   CLOUDY    59  54  82 NW7       29.74S

$$

MDZ501>502-260500-
WESTERN MARYLAND

CITY           SKY/WX    TMP DP  RH WIND       PRES   REMARKS
OAKLAND*       CLOUDY    37  36  93 NW8G16    29.86S WCI  31
CUMBERLAND*    CLOUDY    52  39  62 W12G23    29.90R

$$

VAZ025>031-260500-
SHENANDOAH VALLEY

CITY           SKY/WX    TMP DP  RH WIND       PRES   REMARKS
WINCHESTER*    CLOUDY    55  46  71 NW8       29.81S
FRONT ROYAL*   CLOUDY    59  46  63 NW9G17    29.79R
LURAY*         CLOUDY    59  46  63 NW12      29.80R
NEW MARKET*    FAIR      57  46  67 N5        29.80S
STAUNTON*      CLOUDY    57  47  71 NW5       29.82F
WAYNESBORO*    MOCLDY    56  47  71 W8        29.80S

$$

WVZ021-048>050-054>055-260500-
EASTERN WEST VIRGINIA PANHANDLE

CITY           SKY/WX    TMP DP  RH WIND       PRES   REMARKS
MARTINSBURG    CLOUDY    58  46  64 NW13G21   29.78R
PETERSBURG*    CLOUDY    53  45  72 N6        29.86R

$$

VAZ036>039-050-260500-
CENTRAL FOOTHILLS

CITY           SKY/WX    TMP DP  RH WIND       PRES   REMARKS
CHARLOTTESVILL FAIR      62  48  60 CALM      29.77S
CULPEPER*      CLOUDY    62  48  60 N6        29.78R
ORANGE*        MOCLDY    61  48  63 CALM      29.77R
GORDONSVILLE*  CLOUDY    64  50  61 CALM      29.76S
WARRENTON*     FAIR      58  48  70 NW6       29.76S

$$

VAZ055>057-260500-
NORTH AND CENTRAL PIEDMONT

CITY           SKY/WX    TMP DP  RH WIND       PRES   REMARKS
FREDERICKSBRG* FAIR      62  53  72 NW6       29.75R
STAFFORD*      FAIR      56  55  94 NW9       29.79S

$$

NCZ024-NYZ072-PAZ021-071-VAZ022-071-260500-
OTHER REGIONAL OBSERVATIONS

CITY           SKY/WX    TMP DP  RH WIND       PRES   REMARKS
NEW YORK CITY  CLOUDY    56  54  93 CALM      29.66F FOG
PHILADELPHIA   CLOUDY    61  57  87 NW6       29.66F
PITTSBURGH     MOCLDY    44  38  79 NW7       29.90S
ROANOKE        CLOUDY    58  49  72 NW6       29.86R
RICHMOND       FAIR      57  57 100 CALM      29.76R
RALEIGH        FAIR      55  55 100 CALM      29.82S

$$

ANZ530>537-260500-
MARINE OBSERVATIONS

STATION/POSITION TIME  TEMP    WIND        PRES
                       AIR SEA DIR/SP/G
                 (UTC) (F)     (DEG/KT/KT) (MB)
THOMAS PT LIGHT  0400   60 54  270/  8/  8 1007.2S
BALT KEY BRIDGE  0342   60     260/  8/  8 1006.1S
COVE POINT       0342   60     320/  8/ 15 1006.9S
LEWISETTA        0342   60 55  300/  6/  7 1006.5F
SOLOMONS ISLAND  0342   58 54  300/  4/  5 1006.2F
PINEY POINT      0342          340/  8/  9   N/A

$$





USA.gov is the U.S. government's official web portal to all federal, state and local government web resources and services.